Regional Weather Roundup
Issued by NWS

Home | Current Version | Previous Version | Text Only | Print | Product List | Glossary Off
Versions: 1 2 3 4 5 6 7 8 9 10 11 12 13 14 15 16 17 18 19 20 21 22 23 24 25 26 27 28 29 30 31 32 33 34 35 36 37 38 39 40 41 42 43 44 45 46 47 48 49 50

000
ASUS43 KLSX 301257
RWRMO

WEATHER SUMMARY FOR MISSOURI
NATIONAL WEATHER SERVICE SPRINGFIELD MO
800 AM CDT SAT APR 30 2016

NOTE: "FAIR" INDICATES FEW OR NO CLOUDS BELOW 12,000 FEET WITH NO
       SIGNIFICANT WEATHER AND/OR OBSTRUCTIONS TO VISIBILITY.
       CURRENT SKY AND/OR WEATHER CONDITIONS ARE NOT AVAILABLE FOR
       CHILLICOTHE AND FARMINGTON.

MOZ001>031-035>038-043-044-053-054-301400-
...NORTHERN AND WESTERN MISSOURI...

CITY           SKY/WX    TMP DP  RH WIND       PRES   REMARKS
KANSAS CTY INT LGT RAIN  56  55  97 E6        29.66R VSB 1
ST JOSEPH      LGT RAIN  52  50  93 E14       29.66S FOG
CHILLICOTHE      N/A     54  52  93 E8        29.72S

$$
MOZ066>068-077>081-088>096-101>105-301400-
...SOUTHWEST MISSOURI...

CITY           SKY/WX    TMP DP  RH WIND       PRES   REMARKS
SPRINGFIELD    CLOUDY    63  60  90 S12       29.68S
JOPLIN         CLOUDY    64  62  93 SW16      29.68R
BRANSON        CLOUDY    63  63 100 CALM      29.71S

$$
MOZ032>034-039>042-045>050-055>058-069>072-301400-
...CENTRAL MISSOURI...

CITY           SKY/WX    TMP DP  RH WIND       PRES   REMARKS
COLUMBIA       NOT AVBL
JEFFERSON CITY CLOUDY    59  57  93 E9        29.71S
ROLLA          CLOUDY    60  58  92 SE3       29.72R
SEDALIA        LGT RAIN  60  58  92 SE13      29.69S FOG
WARRENSBURG    CLOUDY    59  55  88 E10       29.66S FOG

$$
MOZ051-052-059>065-301400-
...EAST CENTRAL MISSOURI...

CITY           SKY/WX    TMP DP  RH WIND       PRES   REMARKS
ST LOUIS INTL  LGT RAIN  60  57  89 E16G25    29.76F FOG

$$
MOZ072>076-082>087-097>100-106>115-301400-
...SOUTH CENTRAL AND SOUTHEAST MISSOURI...

CITY           SKY/WX    TMP DP  RH WIND       PRES   REMARKS
CAPE GIRARDEAU LGT RAIN  62  60  93 SE13      29.82F
POPLAR BLUFF   CLOUDY    64  61  90 S12       29.79R
WEST PLAINS    CLOUDY    63  59  87 S7        29.75R

$$


USA.gov is the U.S. government's official web portal to all federal, state and local government web resources and services.